#timestamp,LO_Frequency,Hit,StdDev 
1676559615.4,286047003.4,P
1676559635.3,286047004.7,Y
1676559655.1,286047004.1,P
1676559675.9,286047005.4,P
1676559695.7,286047004.5,P
1676559715.5,286047006.1,Y
1676559735.4,286047003.6,P
1676559755.2,286047003.3,P
1676559775.0,286047007.5,P
1676559775.9,286047007.5,Y
1676559795.8,286047004.1,P
1676559815.6,286047002.9,P
1676559835.5,286047007.5,P
1676559855.3,286047007.3,Y
1676559875.1,286047003.1,P
1676559895.9,286047005.6,P
1676559915.7,286047007.2,P
1676559935.5,286047006.1,Y
1676559955.4,286047004.1,P
1676559975.2,286047005.7,P
1676559995.1,286047007.4,P
1676559996.0,286047007.4,Y
1676560015.8,286047002.6,P
1676560035.6,286047001.7,N
1676560055.5,286047003.8,N
1676560075.3,286047005.8,Y
1676560095.2,286047001.5,P
1676560115.9,286047003.1,P
1676560135.7,286047005.9,P
1676560155.6,286047007.1,Y
1676560175.4,286047006.0,P
1676560195.2,286047005.0,P
1676560215.1,286047007.4,P
1676560216.0,286047007.4,Y
1676560235.8,286047002.4,P
1676560255.7,286047001.6,N
1676560275.5,286047003.8,N
1676560295.3,286047003.0,N
1676560315.2,286047005.3,Y
1676560335.0,286047002.1,P
1676560335.9,286047002.1,P
1676560355.8,286047004.3,P
1676560375.6,286047003.6,Y
1676560395.4,286046999.9,P
1676560415.3,286046999.7,N
1676560435.1,286047001.8,N
1676560455.8,286047003.6,N
1676560475.7,286047006.0,Y
1676560495.5,286047003.5,P
1676560515.4,286047003.0,P
1676560535.2,286047003.2,P
1676560555.0,286047006.0,Y
1676560555.9,286047006.0,P
1676560575.8,286047002.0,N
1676560595.6,286047004.0,N
1676560615.4,286047001.4,N
1676560635.3,286047003.9,N
1676560655.1,286047003.7,N
1676560675.9,286047004.1,N
1676560695.7,286047003.4,N
1676560715.5,286047003.3,N
1676560735.4,286047005.4,Y
1676560755.2,286047002.3,P
1676560775.0,286047001.8,P
1676560775.9,286047001.8,N
1676560795.8,286047002.0,N
1676560815.6,286047001.5,N
1676560835.5,286047001.4,N
1676560855.3,286047003.8,Y
1676560875.1,286047000.2,P
1676560895.9,286046999.8,N
1676560915.7,286047000.1,N
1676560935.6,286047002.6,N
1676560955.4,286047002.8,N
1676560975.2,286047002.0,N
1676560995.1,286047001.6,N
1676560996.0,286047001.6,N
1676561015.8,286047001.7,N
1676561035.6,286047001.5,N
1676561055.5,286047004.2,Y
1676561075.3,286047002.4,P
1676561095.2,286047001.5,P
1676561115.9,286047003.9,P
1676561135.7,286047003.1,Y
1676561155.6,286047001.5,P
1676561175.4,286047004.4,P
1676561195.2,286047003.1,N
1676561215.1,286047005.4,Y
1676561216.0,286047005.4,P
1676561235.8,286047001.7,N
1676561255.7,286047003.6,N
1676561275.5,286047006.0,Y
1676561295.3,286047002.0,P
1676561315.2,286047003.6,P
1676561335.0,286047005.6,P
1676561335.9,286047005.6,Y
1676561355.8,286047002.0,P
1676561375.6,286047004.0,P
1676561395.4,286047004.1,P
1676561415.3,286047005.3,Y
1676561435.1,286047004.4,P
1676561455.8,286047003.6,P
1676561475.7,286047002.9,P
1676561495.5,286047004.9,Y
1676561515.4,286047004.3,P
1676561535.2,286047003.7,P
1676561555.0,286047003.4,P
1676561555.9,286047003.4,Y
1676561575.8,286047002.3,P
1676561595.6,286047002.3,P
1676561615.5,286047001.6,N
1676561635.3,286047003.8,Y
1676561655.1,286047001.9,P
1676561675.9,286047004.4,P
1676561695.7,286047003.1,N
1676561715.6,286047005.8,Y
1676561735.4,286047001.8,P
1676561755.2,286047003.1,P
1676561775.1,286047003.3,P
1676561776.0,286047003.3,Y
1676561795.8,286047001.8,P
1676561815.6,286047003.9,P
1676561835.5,286047003.5,P
1676561855.3,286047005.8,Y
1676561875.2,286047001.3,P
1676561895.9,286047003.9,P
1676561915.7,286047002.9,N
1676561935.6,286047005.7,Y
1676561955.4,286047004.1,P
1676561975.2,286047003.6,P
1676561995.1,286047002.9,P
1676561996.0,286047002.9,Y
1676562015.8,286047002.4,P
1676562035.7,286047001.7,P
1676562055.5,286047004.0,P
1676562075.3,286047003.1,Y
1676562095.2,286047001.5,P
1676562115.0,286047004.0,P
1676562115.9,286047004.0,P
1676562135.8,286047003.2,Y
1676562155.6,286047002.6,P
1676562175.4,286047002.1,P
1676562195.3,286047001.8,P
1676562215.1,286047004.0,Y
1676562235.8,286047002.7,P
1676562255.7,286047001.9,P
1676562275.5,286047004.0,P
1676562295.4,286047003.6,Y
1676562315.2,286047002.1,P
1676562335.0,286047001.7,P
1676562335.9,286047001.7,P
1676562355.8,286047001.5,Y
1676562375.6,286047002.7,P
1676562395.4,286047002.6,P
1676562415.3,286047001.5,P
1676562435.1,286047001.3,N
1676562455.9,286047003.9,Y
1676562475.7,286047002.3,P
1676562495.5,286047002.5,P
1676562515.4,286046999.7,N
1676562535.2,286047002.0,N
1676562555.0,286047001.8,N
1676562555.9,286047001.8,N
1676562575.8,286047001.8,N
1676562595.6,286047001.9,N
1676562615.5,286047001.9,N
1676562635.3,286047002.1,N
1676562655.1,286047002.5,Y
1676562675.9,286046998.1,P
1676562695.7,286046998.4,N
1676562715.5,286046998.9,N
1676562735.4,286046999.5,N
1676562755.2,286046996.7,N
1676562775.1,286046997.1,N
1676562776.0,286046997.1,N
1676562795.8,286046997.6,N
1676562815.6,286046995.1,Y
1676562835.5,286046997.0,P
1676562855.3,286046995.4,P
1676562875.1,286046995.4,P
1676562895.9,286046996.0,Y
1676562915.7,286046996.8,P
1676562935.6,286046998.0,P
1676562955.4,286046995.1,P
1676562975.2,286046995.6,Y
1676562995.1,286046996.8,P
1676562996.0,286046996.8,P
1676563015.8,286046995.3,P
1676563035.7,286046995.5,Y
1676563055.5,286046998.8,P
1676563075.3,286046997.1,N
1676563095.2,286046995.0,P
1676563115.9,286046996.1,N
1676563135.7,286046993.5,Y
1676563155.6,286046994.9,P
1676563175.4,286046993.3,P
1676563195.3,286046991.7,P
